| time (UTC) | temp F | wind direction | speed knots | gust knots | rain 1hr in | rain 24hr in | rain mn in | humidity % | barometer mb |
| 20260506211537 | 72 | 306 | 2.6 | 7.8 | 0.00 | 0.00 | 0.00 | 61 | 1017.4 |
| 20260506210037 | 71 | 281 | 0.9 | 10.4 | 0.00 | 0.00 | 0.00 | 63 | 1017.4 |
| 20260506204547 | 71 | 248 | 1.7 | 7.0 | 0.00 | 0.00 | 0.00 | 64 | 1017.5 |
| 20260506203031 | 70 | 314 | 1.7 | 7.8 | 0.00 | 0.00 | 0.00 | 65 | 1017.7 |
| 20260506201533 | 69 | 325 | 1.7 | 7.8 | 0.00 | 0.00 | 0.00 | 65 | 1018.1 |
| 20260506200027 | 70 | 296 | 1.7 | 7.0 | 0.00 | 0.00 | 0.00 | 63 | 1018.2 |
| 20260506194524 | 69 | 348 | 0.9 | 7.8 | 0.00 | 0.00 | 0.00 | 66 | 1018.3 |
| 20260506193020 | 68 | 11 | 2.6 | 5.2 | 0.00 | 0.00 | 0.00 | 65 | 1018.4 |
| 20260506191519 | 68 | 360 | 1.7 | 5.2 | 0.00 | 0.00 | 0.00 | 66 | 1018.6 |
| 20260506190010 | 67 | 5 | 1.7 | 5.2 | 0.00 | 0.00 | 0.00 | 66 | 1018.7 |
| 20260506184509 | 67 | 324 | 1.7 | 5.2 | 0.00 | 0.01 | 0.00 | 67 | 1018.9 |
| 20260506183007 | 67 | 325 | 0.9 | 5.2 | 0.00 | 0.01 | 0.00 | 68 | 1019.0 |
| 20260506181506 | 66 | 257 | 0.9 | 3.5 | 0.00 | 0.01 | 0.00 | 69 | 1019.0 |
| 20260506180007 | 65 | 265 | 1.7 | 5.2 | 0.00 | 0.01 | 0.00 | 68 | 1019.0 |
| 20260506174604 | 65 | 223 | 0.9 | 5.2 | 0.00 | 0.02 | 0.00 | 69 | 1019.0 |
| 20260506173112 | 64 | 334 | 0.0 | 2.6 | 0.00 | 0.02 | 0.00 | 70 | 1019.1 |
| 20260506171559 | 63 | 334 | 0.0 | 2.6 | 0.00 | 0.02 | 0.00 | 73 | 1019.1 |
| 20260506170052 | 62 | 333 | 0.0 | 0.0 | 0.00 | 0.02 | 0.00 | 72 | 1019.3 |
| 20260506164552 | 61 | 333 | 0.0 | 1.7 | 0.00 | 0.02 | 0.00 | 76 | 1019.3 |
| 20260506163051 | 60 | 333 | 0.0 | 4.3 | 0.00 | 0.02 | 0.00 | 76 | 1019.3 |
| 20260506161550 | 60 | 333 | 0.9 | 3.5 | 0.00 | 0.02 | 0.00 | 77 | 1019.3 |
| 20260506160046 | 59 | 333 | 0.0 | 2.6 | 0.00 | 0.02 | 0.00 | 77 | 1019.3 |
| 20260506154540 | 59 | 333 | 0.9 | 2.6 | 0.00 | 0.02 | 0.00 | 78 | 1019.3 |
| 20260506153037 | 59 | 333 | 0.0 | 2.6 | 0.00 | 0.02 | 0.00 | 79 | 1019.3 |
| 20260506151549 | 59 | 333 | 0.0 | 3.5 | 0.00 | 0.02 | 0.00 | 79 | 1019.3 |
| 20260506150036 | 59 | 333 | 0.9 | 3.5 | 0.00 | 0.02 | 0.00 | 80 | 1019.3 |
| 20260506144535 | 58 | 333 | 0.0 | 1.7 | 0.00 | 0.02 | 0.00 | 81 | 1019.2 |
| 20260506143042 | 58 | 333 | 0.0 | 3.5 | 0.00 | 0.02 | 0.00 | 81 | 1019.1 |
| 20260506141530 | 58 | 333 | 0.0 | 2.6 | 0.00 | 0.02 | 0.00 | 82 | 1019.0 |
| 20260506140033 | 58 | 333 | 0.0 | 2.6 | 0.00 | 0.02 | 0.00 | 82 | 1018.9 |
| 20260506134527 | 57 | 333 | 0.0 | 3.5 | 0.00 | 0.02 | 0.00 | 82 | 1018.7 |
| 20260506133026 | 57 | 333 | 0.0 | 2.6 | 0.00 | 0.02 | 0.00 | 82 | 1018.5 |
| 20260506131526 | 57 | 333 | 0.0 | 0.0 | 0.00 | 0.02 | 0.00 | 82 | 1018.4 |
| 20260506130021 | 57 | 333 | 0.0 | 1.7 | 0.00 | 0.02 | 0.00 | 82 | 1018.2 |
| 20260506124521 | 57 | 333 | 0.0 | 1.7 | 0.00 | 0.02 | 0.00 | 82 | 1018.1 |
| 20260506123020 | 57 | 333 | 0.0 | 1.7 | 0.00 | 0.02 | 0.00 | 82 | 1018.1 |
| 20260506121519 | 57 | 333 | 0.0 | 3.5 | 0.00 | 0.02 | 0.00 | 82 | 1018.1 |
| 20260506120018 | 57 | 333 | 0.0 | 3.5 | 0.00 | 0.02 | 0.00 | 82 | 1018.1 |
| 20260506114521 | 57 | 333 | 0.0 | 2.6 | 0.00 | 0.03 | 0.00 | 82 | 1018.0 |
| 20260506113016 | 57 | 333 | 0.0 | 2.6 | 0.00 | 0.03 | 0.00 | 82 | 1017.8 |
| 20260506111515 | 57 | 333 | 0.0 | 2.6 | 0.00 | 0.03 | 0.00 | 82 | 1017.7 |
| 20260506110015 | 57 | 333 | 0.0 | 0.9 | 0.00 | 0.03 | 0.00 | 83 | 1017.6 |
| 20260506104513 | 57 | 333 | 0.0 | 1.7 | 0.00 | 0.04 | 0.00 | 83 | 1017.5 |
| 20260506103010 | 57 | 333 | 0.0 | 0.9 | 0.00 | 0.04 | 0.00 | 83 | 1017.5 |
| 20260506101504 | 57 | 333 | 0.0 | 0.0 | 0.00 | 0.04 | 0.00 | 83 | 1017.5 |
| 20260506100003 | 56 | 333 | 0.0 | 0.9 | 0.00 | 0.04 | 0.00 | 82 | 1017.5 |
| 20260506094505 | 57 | 333 | 0.0 | 0.0 | 0.00 | 0.04 | 0.00 | 81 | 1017.5 |
| 20260506093105 | 57 | 333 | 0.0 | 0.0 | 0.00 | 0.04 | 0.00 | 81 | 1017.5 |
| 20260506091558 | 57 | 333 | 0.0 | 1.7 | 0.00 | 0.04 | 0.00 | 82 | 1017.5 |
| 20260506084557 | 57 | 333 | 0.0 | 2.6 | 0.00 | 0.04 | 0.00 | 82 | 1017.5 |
| 20260506083056 | 57 | 333 | 0.0 | 1.7 | 0.00 | 0.04 | 0.00 | 82 | 1017.5 |
| 20260506081555 | 57 | 333 | 0.0 | 2.6 | 0.00 | 0.04 | 0.00 | 82 | 1017.6 |
| 20260506073048 | 58 | 333 | 0.0 | 1.7 | 0.00 | 0.04 | 0.00 | 81 | 1017.4 |
| 20260506071600 | 58 | 333 | 0.9 | 3.5 | 0.00 | 0.04 | 0.00 | 80 | 1017.2 |
| 20260506061538 | 59 | 333 | 0.9 | 4.3 | 0.00 | 0.04 | 0.04 | 80 | 1016.9 |
| 20260506044531 | 59 | 336 | 1.7 | 7.0 | 0.00 | 0.04 | 0.04 | 79 | 1016.3 |
| 20260506043030 | 59 | 333 | 1.7 | 7.8 | 0.00 | 0.04 | 0.04 | 78 | 1016.1 |
| 20260506041532 | 59 | 355 | 2.6 | 7.0 | 0.00 | 0.04 | 0.04 | 77 | 1016.0 |
| 20260506040028 | 59 | 335 | 2.6 | 8.7 | 0.00 | 0.04 | 0.04 | 77 | 1015.8 |
| 20260506034524 | 59 | 336 | 2.6 | 7.0 | 0.00 | 0.04 | 0.04 | 77 | 1015.5 |
| 20260506033028 | 60 | 339 | 2.6 | 7.0 | 0.00 | 0.04 | 0.04 | 77 | 1015.4 |
| 20260506031525 | 60 | 340 | 2.6 | 7.8 | 0.00 | 0.04 | 0.04 | 76 | 1015.2 |
| 20260506030024 | 60 | 344 | 1.7 | 4.3 | 0.00 | 0.04 | 0.04 | 75 | 1015.0 |
| 20260506024519 | 61 | 344 | 0.9 | 7.0 | 0.00 | 0.04 | 0.04 | 75 | 1014.9 |
| 20260506023018 | 61 | 343 | 1.7 | 5.2 | 0.00 | 0.04 | 0.04 | 74 | 1014.8 |
| 20260506021517 | 61 | 342 | 0.0 | 5.2 | 0.00 | 0.04 | 0.04 | 73 | 1014.6 |
| 20260506020022 | 61 | 342 | 0.9 | 4.3 | 0.00 | 0.04 | 0.04 | 72 | 1014.5 |
| 20260506014519 | 62 | 343 | 0.9 | 5.2 | 0.00 | 0.04 | 0.04 | 72 | 1014.4 |
| 20260506013024 | 62 | 347 | 0.9 | 5.2 | 0.00 | 0.04 | 0.04 | 72 | 1014.5 |
| 20260506011516 | 62 | 334 | 0.0 | 7.8 | 0.00 | 0.04 | 0.04 | 71 | 1014.5 |
| 20260506010023 | 62 | 325 | 0.9 | 5.2 | 0.00 | 0.04 | 0.04 | 71 | 1014.5 |
| 20260506004519 | 62 | 329 | 4.3 | 7.8 | 0.00 | 0.04 | 0.04 | 70 | 1014.4 |
| 20260506003014 | 63 | 331 | 1.7 | 8.7 | 0.00 | 0.04 | 0.04 | 70 | 1014.3 |
| 20260506001514 | 63 | 341 | 0.9 | 7.0 | 0.00 | 0.04 | 0.04 | 69 | 1014.2 |
| 20260506000018 | 63 | 344 | 0.9 | 7.0 | 0.00 | 0.04 | 0.04 | 68 | 1014.0 |
| 20260505234517 | 64 | 9 | 0.9 | 5.2 | 0.00 | 0.04 | 0.04 | 68 | 1014.0 |
| 20260505233011 | 64 | 331 | 0.9 | 5.2 | 0.00 | 0.04 | 0.04 | 67 | 1014.1 |
| 20260505231602 | 64 | 329 | 1.7 | 7.0 | 0.00 | 0.04 | 0.04 | 68 | 1014.2 |
| 20260505230118 | 64 | 336 | 2.6 | 7.0 | 0.00 | 0.04 | 0.04 | 68 | 1014.2 |
| 20260505224558 | 64 | 340 | 0.9 | 8.7 | 0.00 | 0.04 | 0.04 | 69 | 1014.1 |
| 20260505223100 | 64 | 336 | 0.9 | 7.8 | 0.00 | 0.04 | 0.04 | 68 | 1014.2 |
| 20260505221559 | 64 | 334 | 3.5 | 9.6 | 0.00 | 0.04 | 0.04 | 67 | 1014.2 |
| 20260505220051 | 64 | 9 | 1.7 | 9.6 | 0.00 | 0.04 | 0.04 | 69 | 1014.4 |
| 20260505214559 | 64 | 325 | 1.7 | 11.3 | 0.00 | 0.04 | 0.04 | 69 | 1014.5 |
| 20260505213055 | 63 | 342 | 0.9 | 4.3 | 0.00 | 0.04 | 0.04 | 69 | 1014.6 |